Dewpoint
62 55 45 44 37 36 34 39 44 41 43 43 44 43 44 52 46 35 60 64 66 68 69 69 70 70 70 69 68 69 68 66 64 64 65 67 65 64 64 65 65 64 61 62 60 63 63 64 64
56 51 43 42 36 34 33 39 40 42 44 45 46 48 47 49 58 58 60 66 67 68 69 69 70 70 69 68 68 68 66 65 63 63 63 66 65 65 63 63 64 62 61 61 61 62 63 63 63
49 43 40 40 38 34 33 36 41 45 46 46 46 50 52 52 57 60 62 66 67 67 68 69 70 70 69 68 67 67 66 65 63 62 62 62 63 63 63 62 62 63 61 61 61 62 62 61 61
43 42 41 37 37 38 34 36 43 45 44 47 47 49 54 58 59 61 65 66 67 67 68 69 70 70 69 68 67 65 64 63 62 62 61 64 63 65 64 63 63 62 60 60 61 60 60 60 61
43 41 38 37 36 37 37 38 44 44 43 44 46 48 52 59 60 63 65 65 66 66 68 69 70 70 69 69 67 66 65 64 63 63 62 64 64 65 64 64 62 61 60 61 60 60 60 59 61
39 40 36 35 36 36 36 36 37 39 42 48 46 50 52 60 60 61 64 65 66 66 68 68 67 68 69 69 68 67 66 66 65 65 64 64 65 65 65 64 62 61 61 61 60 60 59 59 59
39 37 36 35 36 33 33 34 38 37 45 45 44 47 53 58 60 61 64 65 66 67 67 68 68 67 66 67 67 67 67 66 66 66 64 64 64 65 65 64 65 61 62 61 61 60 60 59 58
40 37 35 34 33 32 33 34 38 39 41 44 46 44 47 57 61 61 63 64 64 66 66 66 67 67 66 66 64 65 66 66 65 65 64 62 62 63 63 61 62 60 61 63 62 61 60 59 58
41 36 33 35 33 33 35 32 36 37 37 40 52 51 55 59 61 60 60 62 63 64 65 65 65 66 66 66 65 63 64 64 64 63 62 60 60 60 60 60 61 62 60 63 63 63 62 62 60
40 37 35 35 40 37 36 36 38 34 33 37 46 56 59 59 59 59 59 60 62 63 63 64 65 65 65 66 65 64 64 64 63 63 61 60 59 59 59 58 59 61 59 62 63 62 62 61 57
43 38 39 40 39 39 38 38 41 37 32 36 38 47 57 57 59 59 59 59 61 63 63 64 64 65 64 65 65 64 64 63 62 62 61 60 59 58 58 57 57 57 57 60 61 60 59 58 57
41 42 42 43 42 41 40 41 40 40 38 37 38 39 57 58 58 59 59 59 59 60 62 63 64 64 64 64 64 64 64 63 62 62 61 59 58 57 57 57 57 57 58 58 58 57 57 56 56
43 44 43 43 43 42 42 42 41 41 42 42 41 42 54 58 58 58 60 60 60 59 60 60 63 64 63 63 63 63 64 64 63 62 61 60 58 57 57 57 57 57 57 57 56 56 56 55 55
44 44 43 42 41 41 40 40 40 39 40 39 39 39 40 55 58 57 58 59 59 60 59 60 59 62 62 62 62 62 63 63 63 62 61 60 59 58 57 57 57 57 57 57 57 56 55 55 55
45 41 42 41 41 40 40 38 38 40 40 39 39 38 37 38 50 57 58 59 60 60 60 60 59 58 60 60 61 62 63 63 63 63 62 61 60 58 57 58 58 58 58 57 56 55 55 54 55
41 39 36 40 41 41 40 37 39 39 38 38 37 36 37 37 38 46 57 59 59 60 60 60 60 59 57 58 59 60 62 63 63 63 63 62 61 59 58 57 57 58 57 57 56 55 54 54 54
39 34 35 38 40 40 39 36 38 39 38 37 37 37 36 35 36 38 40 50 58 59 59 60 60 60 59 57 58 58 59 62 63 63 63 62 62 60 58 57 57 56 57 56 56 55 54 53 54
33 35 37 35 38 38 37 36 37 38 38 37 37 36 35 35 35 36 36 39 51 59 60 60 60 60 60 59 58 58 58 58 60 62 62 62 62 61 59 58 57 56 56 55 55 55 54 54 53
37 34 32 35 38 36 35 35 36 36 37 36 36 36 36 36 36 36 36 37 40 55 59 60 60 60 60 59 59 58 58 58 58 59 59 61 61 61 60 60 58 56 56 55 55 54 53 53 53
39 37 33 38 39 37 35 34 35 36 36 36 36 36 36 36 36 36 36 35 38 48 57 58 59 59 60 60 60 60 59 59 59 59 59 59 60 60 60 60 59 58 57 55 54 54 53 53 53
38 37 36 36 37 36 34 32 32 34 35 36 36 36 36 36 36 35 35 35 36 37 46 56 58 59 59 60 60 60 60 60 60 60 60 61 60 60 60 59 60 59 58 57 55 54 53 53 53
36 39 38 36 34 30 32 25 28 31 31 32 33 34 34 35 35 33 34 36 36 37 45 52 55 57 58 60 59 59 59 59 60 60 61 61 61 61 60 59 59 60 59 58 57 55 54 53 52
36 37 37 36 34 31 31 31 28 31 29 30 31 32 32 32 31 35 34 35 35 36 36 36 37 39 43 54 58 59 59 60 60 60 60 60 61 61 60 60 59 59 59 58 58 57 55 54 53
38 37 37 35 34 29 30 29 26 25 25 26 29 29 32 34 33 31 33 35 35 36 37 38 38 38 38 38 40 47 54 58 59 60 60 60 61 61 60 60 60 59 59 59 58 58 57 55 54
39 35 29 27 28 24 27 28 27 28 28 28 29 29 34 29 30 33 34 34 34 35 36 36 37 37 38 39 39 39 41 44 48 52 55 58 60 61 61 60 60 59 59 59 58 58 57 57 56
36 34 25 18 20 21 28 26 26 31 32 31 32 32 30 31 32 33 34 34 34 34 34 35 36 36 37 36 37 39 40 41 42 44 46 49 52 56 60 61 61 60 60 59 59 58 58 58 57
34 34 33 27 24 27 24 29 29 30 29 28 30 30 30 32 32 32 32 33 34 33 33 32 34 34 35 33 35 36 38 40 40 42 46 49 51 52 56 60 60 60 60 60 60 59 58 58 58
36 36 32 32 23 21 26 25 25 26 27 29 29 29 31 32 31 31 30 30 32 32 32 31 32 30 31 32 33 35 38 39 40 41 41 44 49 51 53 55 59 60 60 60 60 60 59 59 58
36 34 34 32 32 25 19 22 26 25 29 29 28 31 31 31 30 30 29 28 28 28 30 29 29 28 28 29 32 34 36 38 39 38 39 41 43 44 48 52 55 58 59 60 60 60 60 59 58
33 31 31 28 25 29 28 23 31 30 28 29 31 31 30 29 28 27 26 26 25 24 25 27 27 25 26 26 31 32 32 35 34 34 35 38 39 41 43 46 51 55 57 58 59 59 59 59 59
Lifted_Index
4 4 4 3 3 3 3 3 3 3 3 3 3 3 3 2 2 2 1 -0 -1 -1 -2 -2 -2 -2 -2 -1 -1 -1 -1 -0 1 0 -0 -1 -0 1 1 1 2 3 4 4 4 4 4 4 4
4 4 4 3 3 3 3 3 3 3 3 3 3 2 2 2 1 1 0 -0 -1 -1 -2 -2 -2 -2 -2 -1 -1 -1 -0 0 1 1 1 0 1 1 2 2 2 3 4 4 4 4 4 4 4
4 4 4 3 3 3 3 3 3 3 3 3 2 2 2 1 1 0 -0 -0 -1 -1 -2 -2 -2 -2 -1 -1 -0 -0 0 1 2 2 2 1 1 2 2 2 3 3 4 4 4 4 4 4 5
4 4 3 3 3 3 3 3 3 3 3 3 3 2 1 1 0 0 -0 -0 -1 -1 -2 -2 -2 -2 -1 -1 -0 1 1 1 2 2 2 2 2 2 2 3 3 4 4 4 4 5 5 5 5
4 4 3 3 3 3 3 3 3 3 3 3 3 2 1 0 -0 -0 -0 -0 -0 -1 -1 -2 -2 -2 -1 -1 0 1 1 1 2 2 2 2 1 2 2 3 3 4 4 4 4 5 5 5 5
4 4 4 4 4 4 4 4 4 4 4 3 3 2 1 0 -0 -1 -1 -0 -0 -0 -1 -1 -2 -2 -1 -1 -0 0 1 1 1 2 2 2 2 2 2 3 3 4 4 4 4 5 5 6 6
5 5 5 4 4 4 4 5 5 4 4 4 3 3 2 1 -0 -0 -1 -1 -0 -0 -0 -1 -1 -1 -1 -1 -0 0 1 1 1 2 2 2 2 2 3 3 3 4 4 4 4 5 5 6 6
5 5 5 5 4 4 5 5 5 5 5 4 4 3 2 1 0 -0 -1 -1 -1 -0 -0 0 -0 -0 -0 -0 -0 0 1 1 2 2 2 3 3 3 3 4 4 4 4 4 4 4 5 5 6
5 5 6 6 5 5 5 5 5 5 5 5 4 3 2 1 0 -0 -1 -1 -1 -1 -0 0 0 0 0 -0 0 0 1 1 2 2 3 4 4 4 4 4 5 5 4 4 3 3 4 5 6
5 6 6 6 6 6 5 5 5 6 6 6 5 3 1 0 0 -0 -1 -1 -2 -1 -1 -0 0 1 0 0 -0 0 1 1 2 3 3 4 4 4 5 5 5 5 5 4 3 4 4 5 6
5 5 6 6 6 6 5 5 5 5 6 6 5 4 1 0 -0 -0 -1 -1 -2 -2 -1 -1 -0 0 1 0 0 0 1 1 2 3 3 3 4 4 5 5 5 5 5 5 4 4 5 6 6
5 5 5 5 5 5 5 5 5 5 5 5 6 5 2 0 -0 -0 -1 -1 -2 -2 -2 -1 -1 -1 0 0 1 1 1 1 2 2 3 3 4 4 4 5 5 5 5 5 5 5 6 7 7
5 5 5 5 5 5 5 5 5 5 5 5 6 5 4 2 0 -0 -1 -1 -1 -2 -2 -2 -2 -1 -1 0 1 1 1 1 1 2 2 3 3 4 4 5 5 5 5 5 5 5 6 7 7
5 5 5 5 4 5 5 5 5 5 5 5 6 6 5 3 1 0 -0 -1 -1 -1 -1 -2 -2 -2 -1 -0 0 1 1 1 1 2 2 2 3 3 4 5 5 4 4 4 5 5 6 7 7
5 5 5 5 5 5 5 6 5 5 5 5 6 6 6 5 3 2 1 0 -0 -1 -1 -1 -2 -2 -1 -1 -0 0 1 1 1 2 2 2 2 3 3 4 4 4 4 4 5 5 6 6 7
5 5 5 5 5 5 5 6 5 5 5 5 5 5 5 5 4 3 2 1 0 -0 -0 -1 -1 -2 -2 -1 -1 0 0 1 1 2 2 2 2 2 2 3 3 4 4 4 5 5 6 6 6
5 5 6 5 5 5 6 6 6 6 6 6 5 4 4 4 4 4 3 3 2 1 -0 -0 -1 -1 -2 -2 -1 -1 -0 0 1 1 2 2 1 1 1 2 2 2 3 3 4 5 5 5 5
5 6 6 6 5 5 6 7 7 6 6 6 5 4 3 3 3 4 4 4 3 2 0 -1 -1 -2 -2 -2 -2 -2 -1 -0 0 1 1 1 1 1 1 1 1 2 2 2 3 3 4 4 5
6 6 6 6 6 6 6 7 7 7 7 6 5 4 3 3 3 4 4 4 4 3 1 -0 -2 -2 -2 -2 -2 -2 -2 -1 -1 -0 0 1 1 1 1 1 1 1 1 1 1 2 3 3 4
6 6 6 6 6 6 6 7 8 7 7 6 5 4 4 4 4 4 4 4 4 4 3 1 -1 -2 -3 -3 -3 -2 -2 -2 -2 -2 -1 -0 1 1 1 1 1 -0 -1 -0 0 1 1 2 3
6 6 5 5 5 6 6 7 8 8 7 6 5 5 4 4 4 4 4 4 4 4 4 2 0 -2 -3 -3 -3 -3 -2 -3 -3 -3 -2 -1 -0 0 1 1 0 -0 -1 -2 -1 -1 -0 1 1
6 5 5 5 5 6 6 6 7 8 7 6 5 4 4 4 4 4 4 4 4 4 4 3 2 -0 -1 -2 -3 -3 -3 -3 -3 -3 -3 -2 -2 -1 -0 -0 -0 -0 -1 -1 -2 -2 -2 -1 -1
5 5 4 4 5 5 5 5 6 7 7 5 4 4 4 4 4 4 4 4 4 4 4 4 3 2 1 -0 -1 -1 -1 -2 -2 -3 -3 -3 -3 -2 -2 -1 -1 -1 -1 -1 -2 -2 -2 -2 -2
5 4 4 3 3 4 5 5 5 6 6 4 3 3 3 3 3 3 3 3 4 4 4 4 4 4 3 3 3 3 2 1 0 -1 -2 -3 -3 -3 -2 -2 -1 -1 -1 -1 -2 -2 -2 -2 -2
4 3 3 2 2 3 4 4 5 5 4 3 3 2 2 2 3 3 3 3 4 4 5 5 5 5 5 6 6 6 6 5 4 3 2 -0 -2 -3 -3 -3 -2 -2 -2 -2 -2 -2 -2 -2 -2
3 3 2 1 1 2 3 4 4 4 3 2 2 1 1 2 2 3 4 4 4 5 5 6 6 6 6 7 7 7 7 7 7 6 6 4 2 0 -2 -3 -3 -2 -2 -2 -2 -2 -3 -3 -3
3 3 2 1 1 2 2 3 3 2 2 2 1 1 1 2 3 4 4 5 5 6 6 7 7 7 7 7 7 7 7 7 7 7 7 6 5 3 1 -1 -2 -2 -2 -3 -3 -3 -3 -3 -3
2 2 2 1 1 1 1 2 2 1 1 1 1 1 1 2 3 4 5 6 6 7 7 8 8 8 8 8 8 8 8 8 7 7 7 6 6 5 3 1 -1 -2 -2 -2 -2 -2 -3 -3 -3
2 1 1 0 0 0 0 1 1 1 1 1 1 1 2 2 3 4 5 6 6 7 7 8 8 8 9 9 9 9 9 9 9 8 8 7 7 6 5 4 2 -0 -1 -1 -2 -2 -2 -2 -2
1 1 0 0 0 0 0 1 1 1 1 1 1 1 2 3 3 4 5 6 6 6 7 7 8 8 9 9 9 10 10 10 10 10 9 8 7 7 6 5 3 1 -0 -1 -1 -1 -1 -1 -1